Location: ?erníkovice
(49.7777°N, 14.5751°E)
Time: 13:58:05
(UTC+00:00)

Daily predictions for brighter satellites

Satellite Brightness Start Highest point End
(mag) Time Altitude Azimuth Time Altitude Azimuth Time Altitude Azimuth
Cosmos 2184 Rocket 4.1 19:36:58 10° S 19:43:16 69° E 19:49:33 10° NNE
ERS-1 Rocket 3.1 19:39:27 10° SSE 19:44:25 66° ENE 19:49:24 10° N
Spot 2 Rocket 3.9 19:40:21 10° SE 19:45:17 51° ENE 19:50:14 10° N
ATLAS 5 CENTAUR R/B 1.1 19:42:39 10° SW 19:45:57 80° NW 19:49:41 10° NE
Cosmos 1844 Rocket 2.8 19:45:00 10° SSW 19:50:35 86° WNW 19:56:12 10° NNE
Cosmos 2278 Rocket 4.1 19:51:28 10° ESE 19:52:24 10° E 19:53:20 10° E
Resurs 01 Rocket 4.0 19:50:59 10° SW 19:54:21 21° W 19:57:45 10° NW
SWAS 4.4 19:50:54 10° SSW 19:55:04 67° ESE 19:59:16 10° NE
USA 307 3.3 19:53:05 10° W 19:56:57 57° NNW 20:00:43 10° ENE
MetOp-B 4.5 19:52:16 10° S 19:57:36 69° WSW 20:02:58 10° NNW
Cosmos 1606 3.2 19:57:32 10° N 20:00:56 39° ENE 20:04:09 11° SE
Okean O Rocket 3.7 19:58:07 10° SSW 20:01:41 25° W 20:05:15 10° NW
CZ-4C R/B 4.4 19:56:53 10° NW 20:02:06 27° NNE 20:08:23 10° ENE
IRS-1C Rocket 4.3 19:58:44 10° S 20:03:59 74° WSW 20:09:17 10° NNW
SL-23 DEB 4.2 20:02:10 10° WNW 20:05:49 88° NNE 20:11:43 10° ESE
Cosmos 2154 Rocket 4.1 20:01:11 10° S 20:07:31 84° E 20:13:55 10° N
Cosmos 2074 Rocket 4.2 20:02:52 10° SSW 20:09:07 79° W 20:15:27 10° N
Cosmos 1048 Rocket 4.3 20:04:22 10° NNW 20:09:43 73° WSW 20:15:03 10° SSE
Meteor 2-11 Rocket 4.5 20:05:02 10° S 20:11:09 85° E 20:17:21 10° N
Cosmos 1869 3.5 20:08:07 10° N 20:11:51 51° ENE 20:15:15 12° SSE
Ariane Rocket 3.0 20:07:33 10° SSE 20:12:36 78° ENE 20:17:41 10° NNW
SPOT 5 4.0 20:12:12 10° S 20:16:54 44° W 20:21:50 10° NNW
MOS 1 Rocket 3.3 20:12:14 10° S 20:16:55 79° WSW 20:21:22 10° NNW
ATLAS 3B R/B 4.5 20:14:50 10° ESE 20:16:57 11° E 20:19:07 10° E
Cosmos 921 Rocket 3.6 20:13:11 10° NNW 20:17:15 51° WSW 20:21:19 10° S
ISS -3.4 20:15:07 10° W 20:18:25 66° N 20:21:44 10° ENE
USA 215 4.2 20:16:13 10° SSE 20:22:09 36° SW 20:28:08 10° WNW
ARIANE 5 R/B 4.4 20:21:42 10° ESE 20:24:56 20° ENE 20:28:12 10° NNE
GENESIS II 4.3 20:23:32 10° NW 20:27:05 57° NE 20:29:52 15° ESE
Cosmos 2228 3.4 20:24:19 10° N 20:28:24 47° ENE 20:31:33 16° SE
NOSS 2-3 (D) 3.1 20:25:10 10° SW 20:28:49 73° SE 20:32:57 10° NE
Cosmos 1943 Rocket 4.0 20:26:52 11° ESE 20:28:59 13° E 20:31:32 10° ENE
Geosat 4.2 20:25:55 10° NE 20:30:49 51° ESE 20:35:42 10° S
CZ-4C R/B 4.4 20:29:03 10° N 20:32:36 42° WNW 20:35:59 10° SW
Timation 2 Rocket 3.9 20:27:15 10° SSW 20:33:35 86° ESE 20:39:42 10° NNE
Gbstr 26 Del rocket 3.5 20:29:51 10° W 20:34:20 76° N 20:39:53 10° ENE
Cosmos 1125 Rocket 3.5 20:30:13 10° SSW 20:35:30 74° ESE 20:40:48 10° NNE
Cosmos 2150 Rocket 4.4 20:34:10 10° S 20:39:17 46° ESE 20:44:30 10° NNE
NOSS 3-1 (C) 3.9 20:37:12 14° SSE 20:40:31 27° ESE 20:45:13 10° ENE
USA 276 2.7 20:38:36 10° W 20:41:23 37° SSW 20:42:48 22° SSE
SPOT 3 Rocket 3.9 20:38:30 11° S 20:43:31 65° WSW 20:48:43 10° NNW
Cosmos 2084 3.5 20:40:12 10° SW 20:44:18 74° NW 20:48:15 10° NE
Cosmos 2366 rocket 4.1 20:45:59 13° S 20:51:23 61° E 20:57:25 10° NNE
NOSS 2-2 (E) 3.5 20:48:39 10° WSW 20:51:47 54° NW 20:54:55 10° NE
SeaSat 1 4.0 20:47:45 10° E 20:51:50 27° NE 20:55:55 10° NNW
NOSS 2-2 (C) 4.4 20:49:16 10° WSW 20:52:12 36° NW 20:55:14 10° NNE
Landsat 4 3.8 20:49:58 17° S 20:52:27 58° WSW 20:55:51 10° NNW
Cosmos 1544 Rocket 3.6 20:50:24 10° NNW 20:54:44 73° W 20:58:03 17° S
BREEZE-M DEB (TANK) 4.2 20:52:47 10° W 20:56:01 46° SSW 21:03:15 14° SE
Terra 3.2 20:53:21 10° SSW 20:57:36 33° W 21:01:54 10° NNW
NOSS 2-3 (E) 3.9 20:54:22 10° WSW 20:58:00 59° NW 21:02:12 10° NE
Cosmos 1812 4.3 20:58:10 10° NNE 21:00:51 20° ENE 21:02:28 15° ESE
SL-8 Rocket 4.0 20:55:33 11° S 21:01:33 81° E 21:07:54 10° N
USA 305 3.9 21:03:50 10° WNW 21:07:20 37° N 21:10:25 10° ENE
Meteor 1-27 4.2 21:01:46 10° NNW 21:07:28 88° E 21:11:29 20° SSE
ATLAS CENTAUR R/B 3.2 21:05:20 10° WNW 21:08:22 21° WSW 21:10:52 13° SSW
Cosmos 1437 Rocket 2.5 21:07:20 18° SSW 21:09:57 85° WNW 21:13:36 10° N
Cosmos 1833 Rocket 3.0 21:09:00 10° NW 21:14:33 59° WSW 21:18:22 20° S
NOSS 3-1 (A) 4.1 21:16:36 22° SE 21:17:58 25° ESE 21:22:28 10° ENE
Cosmos 44 3.4 21:15:42 10° SW 21:20:58 86° SE 21:26:01 10° NE
Lacrosse 5 3.1 21:19:05 10° W 21:23:56 44° NNW 21:28:48 10° ENE
Cosmos 1606 Rocket 3.5 21:23:30 10° N 21:27:51 70° ENE 21:29:59 29° SSE
Cosmos 2082 Rocket 2.5 21:22:23 10° NNW 21:27:58 60° ENE 21:31:39 21° SE
Cosmos 2218 Rocket 4.1 21:23:42 14° SSW 21:29:10 78° W 21:35:23 10° N
Cosmos 1726 Rocket 3.8 21:25:46 10° N 21:30:03 56° ENE 21:32:05 28° SE
Landsat 5 4.1 21:25:59 10° N 21:30:19 59° WNW 21:34:11 13° SSW
ATLAS 5 CENTAUR R/B 4.3 21:27:50 10° WNW 21:30:23 18° NNW 21:33:13 10° NNE
USA 307 3.8 21:26:53 10° WNW 21:30:36 42° N 21:34:05 10° ENE
Cosmos 2278 Rocket 2.2 21:31:13 19° S 21:35:19 63° ESE 21:40:56 10° NE
Cosmos 2298 Rocket 4.5 21:34:25 10° SW 21:39:42 63° WNW 21:45:01 10° NNE
ULPM Upper Stage 3.3 21:37:31 10° NW 21:41:51 56° NE 21:44:39 20° ESE
CZ-2C R/B 3.7 21:39:04 10° NNE 21:43:42 79° ESE 21:46:20 26° S
NOSS 3 (A) 4.4 21:42:17 10° NW 21:44:55 82° NE 21:45:39 48° SE
H-2A R/B 2.8 21:44:33 30° SE 21:46:08 49° ENE 21:49:50 10° N
Cosmos 1536 Rocket 4.4 21:47:10 15° SW 21:50:27 46° WNW 21:54:38 10° N
CZ-4C R/B 3.4 21:45:19 10° NW 21:51:56 56° NE 22:00:05 10° ESE
Iridium 921 4.3 21:53:03 46° S 21:53:59 82° E 21:57:23 10° N
ISS -3.6 21:52:02 10° WNW 21:55:21 73° NNE 21:57:19 22° E
Cosmos 2058 Rocket 3.4 21:51:23 10° N 21:55:40 55° ENE 21:57:25 32° SE
COSMOS 2406 3.2 21:51:52 10° NNW 21:57:35 77° ENE 22:00:48 27° SE
Cosmos 1934 Rocket 4.4 21:54:42 26° SSE 21:58:00 50° E 22:03:59 10° NNE
Cosmos 1782 4.2 21:55:02 10° NNE 21:58:18 26° ENE 21:59:39 21° ESE
Cosmos 482 Debris 4.2 21:53:42 10° WSW 21:58:39 70° SSE 22:02:15 10° ENE
USA 290 2.0 21:58:14 50° SSW 21:58:58 86° ESE 22:02:11 10° NNE
ARIANE 5 R/B 3.0 21:58:54 30° SSW 22:00:56 57° W 22:05:22 10° NNW
Cosmos 1269 Rocket 4.2 21:59:19 10° NNW 22:04:34 64° WSW 22:07:06 30° S
Cosmos 1727 Rocket 4.3 21:58:38 10° NNW 22:04:54 63° W 22:08:48 24° SSW
BREEZE-M DEB (TANK) 4.3 21:59:01 10° WNW 22:04:55 21° WSW 22:06:11 19° SW
ATLAS 3B R/B 3.0 22:01:26 23° S 22:05:57 54° ESE 22:13:20 10° NE
Cosmos 1943 Rocket 2.1 22:08:20 25° SSW 22:11:45 76° ESE 22:17:23 10° NNE
NOSS 8 (E) 4.2 22:09:37 10° NW 22:12:39 89° NE 22:13:30 49° SE
Cosmos 1821 Rocket 4.4 22:09:49 18° SSW 22:14:31 61° WNW 22:20:51 10° N
USA 281 3.6 22:09:48 19° SE 22:14:31 60° NE 22:20:58 10° NNW
Cosmos 2058 2.8 22:19:03 42° S 22:20:22 79° E 22:24:30 10° NNE
ALOS 2 2.5 22:19:19 38° SSE 22:20:58 85° ENE 22:25:23 10° NNW
Gbstr 26 Del rocket 3.7 22:16:20 10° WNW 22:21:20 80° NNE 22:27:35 10° E
Spot 2 4.2 22:20:40 36° SSE 22:22:29 74° ENE 22:26:48 10° NNW
H-2A R/B 3.6 22:20:52 10° NE 22:23:51 20° E 22:24:34 19° ESE
Cosmos 1023 Rocket 4.4 22:19:52 10° NNW 22:24:59 84° WSW 22:27:12 35° SSE
Spot 4 4.0 22:23:23 34° S 22:25:26 66° WSW 22:30:17 10° NNW
Alouette 2 Rocket 3.7 22:24:00 39° S 22:25:33 77° ESE 22:31:12 10° NNE
Cosmos 407 Rocket 3.7 22:20:49 10° NNW 22:25:59 66° ENE 22:28:36 29° SE
Cosmos 2084 Rocket 3.7 22:23:02 10° NW 22:26:48 43° SW 22:27:21 40° SSW
SeaSat 1 2.5 22:26:56 35° S 22:28:56 66° WSW 22:33:52 10° NW
Cosmos 1544 3.4 22:30:25 35° NNW 22:30:25 35° NNW 22:31:58 10° N
NOSS 3-1 (C) 3.6 22:25:43 10° WSW 22:30:43 61° NW 22:36:51 10° NE
Cosmos 192 4.3 22:28:59 35° S 22:31:03 74° ESE 22:36:01 10° NNE
Cosmos 1271 Rocket 3.1 22:33:32 41° SE 22:34:08 45° E 22:37:45 10° NNE
Cosmos 1932 4.5 22:28:21 10° NW 22:34:30 65° WSW 22:37:30 31° SSE
Cosmos 1605 Rocket 4.2 22:32:33 30° SSE 22:35:28 56° E 22:41:28 10° NNE
Cosmos 1812 3.7 22:32:27 10° NNW 22:35:39 32° W 22:36:28 28° WSW
Cosmos 1666 4.3 22:37:15 18° E 22:37:32 18° E 22:39:57 10° NE
USA 305 2.3 22:36:27 10° WNW 22:39:55 68° NNE 22:40:34 49° E
Cosmos 1241 Rocket 4.5 22:34:08 10° NW 22:40:34 78° SW 22:44:08 29° SSE
Cosmos 1238 Rocket 2.5 22:37:54 10° NNW 22:41:16 73° W 22:42:01 53° SSW
BREEZE-M R/B 4.3 22:39:19 10° W 22:44:18 84° S 23:05:58 10° E
Cosmos 1758 Rocket 4.0 22:43:54 37° SE 22:45:04 47° E 22:49:13 10° NNE
Timation 1 Rocket 4.4 22:41:08 10° NNW 22:47:10 78° ENE 22:50:42 26° SE
Cosmos 1500 4.0 22:47:50 29° E 22:48:05 30° E 22:51:06 10° NNE
Cosmos 2251 Rocket 3.5 22:43:09 10° NNW 22:48:33 86° ENE 22:51:00 33° SSE
Cosmos 2297 4.3 22:46:45 31° SSE 22:48:45 42° ESE 22:54:05 10° NE
Cosmos 1626 Rocket 3.4 22:48:21 44° S 22:49:39 77° E 22:53:57 10° NNE
Cosmos 1933 3.3 22:48:12 10° N 22:52:08 72° ENE 22:53:09 47° SSE
Cosmos 1140 Rocket 3.8 22:47:58 10° NNW 22:52:58 53° WSW 22:54:49 35° SSW
SJ 16-02 4.4 22:59:42 10° NE 23:00:23 10° NE 23:01:03 10° NE
BREEZE-M DEB (TANK) 4.3 22:59:56 10° W 23:03:20 55° SSW 23:13:39 10° ESE
USA 307 2.4 23:00:24 10° WNW 23:04:11 78° NNE 23:05:32 34° ESE
Cosmos-2242 3.0 23:00:32 10° NNW 23:04:43 65° W 23:05:51 44° SSW
Cosmos 1420 Rocket 4.5 23:04:44 33° SSE 23:06:36 48° ESE 23:11:41 10° NNE
CENTAUR R/B 3.9 22:59:52 10° NW 23:07:35 55° NE 23:16:31 10° ESE
Lacrosse 5 3.4 23:03:03 10° WNW 23:07:47 37° N 23:12:30 10° ENE
NOSS 3-1 (A) 3.4 23:03:57 16° WSW 23:08:05 67° NW 23:14:16 10° NE
Cosmos 2082 Rocket 3.5 23:07:04 10° NW 23:11:39 26° WSW 23:13:28 22° SW
Cosmos 2056 Rocket 4.1 23:11:01 32° SSE 23:12:52 44° ESE 23:17:49 10° NE
Cosmos 1515 3.9 23:11:15 10° NNW 23:14:34 44° W 23:14:57 42° WSW
Cosmos 1656 Rocket 3.6 23:13:38 35° S 23:15:55 68° ESE 23:21:26 10° NNE
Cosmos 2278 Rocket 3.9 23:14:55 10° WSW 23:19:49 29° NW 23:24:46 10° NNE
PSLV R/B 3.9 23:16:20 10° N 23:20:36 60° WNW 23:22:20 34° SW
ULPM Upper Stage 3.9 23:17:21 10° WNW 23:20:58 26° WSW 23:20:58 26° WSW
Lacrosse 4 Rocket 2.4 23:20:40 28° ESE 23:21:04 28° ESE 23:24:35 10° NE
H-2A R/B 4.3 23:20:31 16° WSW 23:21:18 17° W 23:23:50 10° NW
Cosmos 2369 Rocket 2.4 23:19:37 34° S 23:21:50 57° ESE 23:27:20 10° NE
Iridium 4 Rocket 3.8 23:23:18 10° N 23:29:02 85° E 23:31:55 32° S
Cosmos 1190 Rocket 4.0 23:25:27 10° NNW 23:30:39 70° WSW 23:32:45 36° S
ISS -1.9 23:28:53 10° W 23:30:10 20° W 23:30:10 20° W
Cosmos 1782 4.0 23:30:40 10° NNW 23:33:55 27° W 23:34:35 26° WSW
Cosmos 676 Rocket 4.0 23:28:50 10° NNW 23:34:04 81° ENE 23:36:47 29° SSE
USA 229 DEB 3.5 23:32:17 29° SSW 23:35:43 76° SE 23:42:32 10° NE
USA 229 3.5 23:32:27 29° SSW 23:35:51 75° SE 23:42:40 10° NE
Cosmos 2263 4.5 23:33:41 32° S 23:36:04 55° ESE 23:41:41 10° NE
Cosmos 1862 3.4 23:35:38 45° SW 23:36:35 63° WNW 23:40:25 10° N
STPSAT 2 (USA 217) 4.5 23:35:38 40° SSW 23:37:12 89° ESE 23:41:43 10° NNE
Cosmos 1378 4.1 23:35:16 10° NNW 23:38:03 27° W 23:38:06 27° W
Cosmos 2346 Rocket 4.4 23:32:21 10° NNW 23:38:29 76° W 23:41:38 31° S
CZ-4C R/B 3.2 23:33:40 10° NW 23:40:39 54° WSW 23:45:35 25° S
Cosmos 482 Debris 4.4 23:36:35 10° W 23:40:39 59° N 23:43:38 10° ENE
COSMOS 2455 3.0 23:35:26 10° NNW 23:41:31 74° NE 23:46:54 13° SE
Cosmos 1340 Rocket 3.6 23:39:19 10° N 23:43:02 44° ENE 23:44:46 26° SE
Meteor 2-21 Rocket 4.5 23:37:52 10° N 23:44:03 79° E 23:47:39 27° SSE
Resurs 1-4 Rocket 4.3 23:41:12 10° NE 23:44:22 16° E 23:47:32 10° SE
Cosmos 2221 2.4 23:41:10 10° N 23:45:25 87° W 23:46:52 41° S
Cosmos 2285 Rocket 4.3 23:46:18 10° NNW 23:52:31 53° WSW 23:55:34 29° SSW
Cosmos 1825 Rocket 3.5 23:54:06 40° SSW 23:55:37 81° W 23:59:58 10° N
